Venezia / Tessera - Marco Polo Airport

Jump to: basic info | weather | frequencies | runways | comments

Related pages: nearby airports | nearby navaids | notams | map

Basic information (top)

Codes: VCE LIPZ
Location: lon 45.505299, lat 12.351900, elev 7 ft / 2 m msl
Status: large_airport
Scheduled airline service: yes
Links: Wikipedia Mobile

Weather (top)

Current conditions (rec'd 2014/11/20 22:20Z):

LIPZ 202220Z VRB02KT 3000 BR BKN019 09/08 Q1024

Airport forecast (rec'd 2014/11/20 18:22Z):

TAF LIPZ 201700Z 2018/2124 VRB05KT 8000 FEW015 
      BECMG 2019/2022 3000 BR 
      TEMPO 2100/2106 0800 BCFG BKN008 
      BECMG 2108/2111 8000 
      BECMG 2117/2120 3000 BR

Frequencies (top)

Verify before use: may be inaccurate or out of date.

APP: 118.9 MHz (APP)
ATIS: 122.225 MHz (ATIS)
GND: 121.7 MHz (GND)
TWR: 120.2 MHz (TWR)

Runways (top)

04L/22R: 9,121 x 148 ft (2,780 x 45 m) — paved — lighted — threshold 04L displaced 308 ft (94 m)

04R/22L: 10,827 x 148 ft (3,300 x 45 m) — paved — lighted

Latest comments (top)

Not recomended for general aviation -smal plane: landing for less than 1 ton MTOW 2 ... [read]

flight cancellation dublin: Trying to find reason for today flight ... [read]

More... (top)

See also NOTAMs and nearby airports and navaids, or visit the Venezia / Tessera - Marco Polo Airport page at the main OurAirports website..